Total_Precipitation_Accumulation
0.01 0.01 0.02 0.01 0.01 0.01 0.02 0.04 0.06 0.05 0.02 0.00 0.00 0.00 0.00 0.00 0.00 0.01 0.04 0.05 0.04 0.04 0.04 0.03 0.03 0.02 0.03 0.03 0.03 0.03 0.04 0.04 0.05 0.07 0.10 0.15 0.22 0.28
0.01 0.02 0.02 0.02 0.03 0.03 0.05 0.05 0.06 0.08 0.06 0.02 0.01 0.01 0.02 0.02 0.01 0.03 0.06 0.06 0.05 0.04 0.04 0.04 0.05 0.05 0.05 0.05 0.05 0.05 0.05 0.05 0.04 0.04 0.06 0.08 0.12 0.19
0.02 0.02 0.04 0.05 0.06 0.06 0.06 0.05 0.06 0.09 0.11 0.05 0.02 0.03 0.06 0.08 0.09 0.12 0.12 0.13 0.11 0.08 0.07 0.08 0.08 0.08 0.08 0.08 0.09 0.09 0.09 0.10 0.09 0.09 0.08 0.08 0.08 0.11
0.03 0.04 0.05 0.05 0.07 0.07 0.06 0.06 0.07 0.10 0.13 0.11 0.08 0.07 0.10 0.13 0.14 0.15 0.08 0.06 0.11 0.09 0.08 0.09 0.10 0.11 0.12 0.12 0.12 0.10 0.08 0.07 0.08 0.09 0.10 0.11 0.11 0.11
0.03 0.04 0.05 0.05 0.06 0.06 0.06 0.06 0.07 0.09 0.14 0.18 0.15 0.13 0.12 0.10 0.13 0.11 0.11 0.16 0.11 0.08 0.08 0.08 0.09 0.09 0.08 0.07 0.07 0.07 0.06 0.04 0.04 0.05 0.06 0.09 0.11 0.12
0.03 0.03 0.04 0.04 0.05 0.06 0.06 0.07 0.11 0.15 0.17 0.20 0.17 0.12 0.10 0.08 0.14 0.14 0.13 0.13 0.12 0.09 0.09 0.07 0.07 0.05 0.03 0.03 0.03 0.04 0.05 0.05 0.06 0.06 0.05 0.05 0.06 0.07
0.02 0.02 0.02 0.04 0.05 0.06 0.07 0.10 0.16 0.20 0.20 0.21 0.17 0.12 0.09 0.10 0.13 0.16 0.15 0.11 0.08 0.07 0.08 0.06 0.06 0.06 0.06 0.05 0.04 0.03 0.03 0.03 0.03 0.04 0.05 0.04 0.04 0.04
0.03 0.03 0.03 0.03 0.03 0.03 0.06 0.11 0.17 0.20 0.21 0.22 0.19 0.16 0.12 0.14 0.19 0.21 0.19 0.19 0.15 0.10 0.13 0.08 0.07 0.07 0.08 0.10 0.09 0.07 0.05 0.04 0.03 0.02 0.03 0.04 0.04 0.03
0.05 0.06 0.04 0.02 0.04 0.07 0.07 0.07 0.08 0.10 0.16 0.23 0.24 0.20 0.18 0.20 0.30 0.30 0.28 0.28 0.24 0.18 0.22 0.17 0.11 0.11 0.10 0.10 0.11 0.10 0.08 0.07 0.06 0.03 0.02 0.02 0.04 0.04
0.05 0.06 0.06 0.05 0.06 0.07 0.06 0.05 0.05 0.05 0.09 0.14 0.21 0.20 0.19 0.23 0.32 0.36 0.34 0.32 0.24 0.20 0.28 0.29 0.16 0.14 0.11 0.15 0.20 0.16 0.12 0.13 0.12 0.05 0.03 0.02 0.02 0.03
0.03 0.04 0.05 0.07 0.07 0.08 0.07 0.07 0.06 0.06 0.07 0.15 0.22 0.27 0.31 0.37 0.39 0.40 0.42 0.40 0.31 0.24 0.34 0.38 0.29 0.22 0.16 0.21 0.24 0.20 0.19 0.26 0.24 0.12 0.05 0.03 0.03 0.03
0.02 0.04 0.07 0.07 0.07 0.07 0.06 0.09 0.12 0.11 0.14 0.20 0.33 0.50 0.56 0.54 0.49 0.44 0.43 0.42 0.40 0.41 0.40 0.42 0.36 0.27 0.23 0.22 0.24 0.25 0.28 0.41 0.40 0.25 0.12 0.07 0.06 0.06
0.04 0.06 0.08 0.08 0.06 0.06 0.07 0.11 0.17 0.17 0.20 0.31 0.46 0.55 0.53 0.43 0.35 0.33 0.34 0.38 0.43 0.49 0.44 0.42 0.36 0.31 0.33 0.28 0.23 0.29 0.38 0.50 0.51 0.38 0.21 0.14 0.11 0.09
0.06 0.08 0.11 0.10 0.09 0.10 0.12 0.15 0.18 0.23 0.30 0.40 0.48 0.47 0.37 0.29 0.26 0.24 0.24 0.28 0.34 0.38 0.35 0.36 0.35 0.31 0.31 0.27 0.26 0.34 0.48 0.61 0.63 0.50 0.33 0.26 0.17 0.14
0.07 0.11 0.14 0.15 0.17 0.20 0.23 0.21 0.24 0.31 0.35 0.40 0.44 0.40 0.32 0.25 0.21 0.19 0.19 0.22 0.26 0.27 0.27 0.27 0.28 0.29 0.32 0.34 0.38 0.47 0.58 0.76 0.76 0.60 0.47 0.36 0.22 0.16
0.06 0.13 0.22 0.27 0.28 0.30 0.32 0.33 0.33 0.35 0.35 0.37 0.35 0.30 0.24 0.20 0.18 0.17 0.19 0.21 0.24 0.27 0.26 0.25 0.27 0.34 0.41 0.45 0.51 0.57 0.60 0.78 0.82 0.68 0.57 0.51 0.41 0.32
0.05 0.11 0.21 0.27 0.28 0.27 0.26 0.27 0.29 0.31 0.31 0.28 0.27 0.24 0.20 0.18 0.18 0.17 0.18 0.18 0.22 0.27 0.27 0.26 0.28 0.31 0.33 0.37 0.45 0.50 0.55 0.67 0.77 0.69 0.56 0.62 0.67 0.53
0.06 0.14 0.22 0.28 0.30 0.28 0.25 0.22 0.22 0.24 0.25 0.25 0.24 0.22 0.21 0.19 0.19 0.19 0.17 0.16 0.19 0.21 0.23 0.23 0.22 0.20 0.17 0.23 0.45 0.53 0.53 0.68 0.74 0.61 0.48 0.57 0.73 0.64
0.08 0.13 0.21 0.27 0.29 0.26 0.24 0.23 0.23 0.22 0.22 0.23 0.22 0.21 0.20 0.19 0.17 0.17 0.16 0.15 0.16 0.17 0.17 0.16 0.14 0.13 0.10 0.20 0.45 0.66 0.62 0.64 0.62 0.55 0.47 0.46 0.62 0.66
0.11 0.16 0.19 0.23 0.26 0.26 0.24 0.21 0.20 0.20 0.19 0.19 0.20 0.21 0.20 0.18 0.16 0.16 0.15 0.14 0.14 0.13 0.12 0.13 0.14 0.14 0.13 0.17 0.41 0.65 0.72 0.56 0.45 0.46 0.47 0.45 0.55 0.58
0.14 0.17 0.19 0.20 0.22 0.23 0.23 0.23 0.21 0.20 0.19 0.18 0.18 0.19 0.19 0.17 0.16 0.14 0.12 0.11 0.11 0.09 0.09 0.12 0.15 0.14 0.08 0.06 0.22 0.43 0.58 0.68 0.56 0.46 0.43 0.41 0.37 0.31
0.14 0.16 0.18 0.19 0.19 0.19 0.17 0.17 0.17 0.16 0.15 0.16 0.17 0.18 0.18 0.16 0.14 0.13 0.12 0.11 0.09 0.08 0.09 0.10 0.10 0.07 0.06 0.08 0.20 0.35 0.42 0.43 0.45 0.48 0.46 0.32 0.19 0.19
0.15 0.16 0.16 0.16 0.16 0.14 0.12 0.11 0.11 0.12 0.12 0.14 0.15 0.16 0.15 0.12 0.11 0.09 0.07 0.05 0.05 0.04 0.04 0.05 0.05 0.04 0.04 0.05 0.10 0.17 0.19 0.17 0.12 0.15 0.30 0.34 0.25 0.24